Weather in Sofiyevka

Russia / Orenburg Oblast     53°10′55″N   54°26′37″E
temp.,
°C
wind,
m/s
gust,
m/s
humid.,
%
clouds,
%
prec.,
mm/h
press.,
hPa
HPBL,
m
25 february, thu
thu2523:00−25n5159414 0.0 1029351
02:00−27nnw349621 0.0 103145
05:00−29nw239710 0.0 103220
08:00−30nw12991 0.0 103319
11:00−26nw00930 0.0 103432
14:00−22ssw22880 0.0 1033195
17:00−22ssw249322 0.0 1032205
20:00−24s3793100 0.0 1031156
26 february, fri
fri2623:00−22s5993100 0.0 1029289
02:00−22sse61097100 0.4 1027328
05:00−22sse61197100 0.6 1026331
08:00−22sse71196100 0.1 1024331
11:00−21sse71296100 0.2 1023334
14:00−19sse71194100 0.0 1022452
17:00−18se71192100 0.1 1021473
20:00−18se71395100 0.0 1019322
27 february, sat
sat2723:00−18se71396100 0.1 1018324
02:00−16sse91695100 0.0 1013360
05:00−14se101794100 0.6 1009434
08:00−13sse101794100 3.8 1005489
11:00−9sse91494100 5.4 1003435
14:00−4sse7119597 0.6 1002358
17:00−1ssw469898 1.1 1002340
20:00−1sw599897 0.5 1002449
28 february, sun
sun2823:00−1sw369899 0.8 1002342
02:00−1sw3798100 0.3 1001354
05:00−4ssw3498100 0.6 100289
08:00−4sw239898 0.2 100257
11:00−3sw239899 0.3 1002160
14:00−1sw3496100 0.1 1003356
17:00−1sw3596100 0.4 1004410
20:00−3ssw3498100 0.4 1005132
1 march, mon
mon123:00−3ssw2398100 1.1 100794
02:00−4sw1298100 0.5 100821
05:00−6wsw119893 0.8 101021
08:00−9nne349489 0.3 101162
11:00−10nne359487 0.4 1013194
14:00−9n359481 0.1 1015242
17:00−9n359481 0.1 1016288
20:00−14n339696 0.1 101834